星链-2343 (STARLINK-2343 )

导读

STARLINK-2343是美国太空探索技术公司(SpaceX)发射的星链卫星,属于Starlink星座计划中的一员,于2021年3月14日发射升空。星链计划旨在搭建全球卫星互联网星座,为全球提供高速互联网接入服务,该卫星的发射推进了星座组网进程。

Basic Information
目录编号:
47884
目录名称:
STARLINK-2343
国际标识:
2021-021AA
轨道中心:
EARTH
卫星名称:
星链-2343
卫星全名:
星链-2343 (STARLINK-2343 )
卫星状态:
在轨 (已飞行1922 天)
发射日期:
2021-03-14 UTC
国别 :
美国 (US)
星等 :
--
Orbit Information
数据来源 国际轨道数据 AOE轨道数据
星历时间 2026-06-18T08:15:07+0800
18小时前
查看轨道信息
2026-06-17T06:00:00+0800
1天前
查看轨道信息
半长轴 6848.866km 6848.875km
偏心率 0.0001098 0.0001322
轨道倾角 53.158° 53.157°
近地点辐角 62.727° 76.070°
升交点赤经 174.318° 179.413°
平近点角 297.385° 9.148°
近地点 469.976km 469.832km
远地点 471.482km 471.644km
周期 94.013分钟 94.013分钟
每日圈数 15.31704 15.317009
Detailed Information
固有亮度:
5
最大亮度:
2.5
卫星平台:
Starlink V1.0
覆盖范围:
全球
运营商:
太空探索技术公司
运营商所在国:
美国
制造商(研发单位):
太空探索技术公司
制造商所在国:
美国
使用方式:
暂无
Satellite Introduction
星链(Starlink)计划是由太空探索技术公司(SpaceX)提出的一个巨型低轨卫星互联网星座项目,计划在2019年至2024年间在太空搭建由约1.2万颗卫星组成的“星链”网络,其中1584颗将部署在地球上空550千米处的近地轨道,并从2020年开始工作。该卫星仍在工作。
2D Orbit Map
3D Orbit Map
Orbit Altitude Analysis Chart
Orbit Inclination Analysis Chart
Orbit Comprehensive Analysis Chart
View Comprehensive Chart